1513206000.94,28207,5.81,72160.8,-12.31,-41.35,-41.35,0,*6E
1513206002.18,28208,5.81,72160.5,-12.31,-41.41,-41.41,0,*61
1513206003.42,28209,5.81,72160.3,-12.33,-41.41,-41.55,0,*67
1513206004.64,28210,5.75,72160.8,-12.33,-41.41,-41.61,0,*68
1513206005.91,28211,5.81,72164.8,-12.31,-41.41,-41.55,0,*6C
1513206007.15,28212,5.81,72164.3,-12.33,-41.41,-41.55,0,*6D
1513206008.42,28213,5.81,72166.0,-12.33,-41.35,-41.55,0,*6F
1513206009.63,28214,5.81,72166.0,-12.33,-41.41,-41.61,0,*6C
1513206010.89,28215,5.81,72160.8,-12.33,-41.55,-41.81,0,*66
1513206012.1,28216,5.81,72162.0,-12.33,-41.41,-41.61,0,*6E
1513206013.35,28217,5.81,72158.5,-12.33,-41.23,-41.41,0,*69
1513206014.56,28218,5.81,72154.0,-12.33,-41.11,-41.17,0,*64
1513206015.83,28219,5.75,72156.0,-12.33,-41.23,-41.23,0,*63
1513206017.07,28220,5.75,72158.3,-12.33,-41.23,-41.17,0,*6E
1513206018.32,28221,5.75,72156.5,-12.39,-41.23,-41.29,0,*68
1513206019.53,28222,5.81,72160.8,-12.39,-41.17,-41.11,0,*67
1513206020.75,28223,5.75,72160.3,-12.39,-41.17,-41.17,0,*60
1513206022.02,28224,5.81,72164.0,-12.35,-41.23,-41.17,0,*6C
1513206023.23,28225,5.81,72166.3,-12.33,-41.17,-41.17,0,*6C
1513206024.53,28226,5.81,72166.3,-12.35,-40.97,-40.97,0,*69
1513206025.77,28227,5.81,72170.5,-12.35,-41.11,-41.11,0,*68
1513206027.04,28228,5.75,72168.3,-12.35,-40.97,-40.91,0,*61
1513206028.33,28229,5.81,72172.0,-12.35,-40.97,-40.97,0,*66
1513206029.58,28230,5.81,72174.0,-12.35,-41.17,-41.11,0,*68
1513206030.81,28231,5.81,72176.5,-12.35,-41.11,-41.17,0,*69
1513206032.03,28232,5.81,72178.5,-12.33,-41.11,-40.91,0,*63
1513206033.25,28233,5.81,72182.8,-12.33,-41.17,-41.11,0,*6D
1513206034.46,28234,5.75,72178.3,-12.33,-40.73,-40.73,0,*6C
1513206035.73,28235,5.81,72184.0,-12.33,-40.97,-40.97,0,*6D
1513206036.94,28236,5.81,72180.0,-12.33,-41.17,-41.17,0,*6E
1513206038.21,28237,5.75,72176.3,-12.33,-41.35,-41.35,0,*6F
1513206039.48,28238,5.75,72174.0,-12.33,-41.35,-41.23,0,*67
1513206040.74,28239,5.75,72172.5,-12.33,-41.55,-41.55,0,*61
1513206042.04,28240,5.81,72174.8,-12.35,-41.55,-41.55,0,*69
1513206043.31,28241,5.81,72178.5,-12.35,-41.35,-41.17,0,*68
1513206044.6,28242,5.75,72176.0,-12.35,-41.35,-41.35,0,*6B
1513206045.87,28243,5.81,72178.5,-12.35,-41.41,-41.35,0,*69
1513206047.14,28244,5.75,72176.5,-12.35,-41.35,-41.17,0,*6D
1513206048.41,28245,5.81,72180.3,-12.35,-41.35,-41.17,0,*6C
1513206049.68,28246,5.75,72178.3,-12.35,-41.35,-41.17,0,*6F
1513206050.96,28247,5.81,72178.0,-12.35,-41.35,-41.11,0,*68
1513206052.23,28248,5.81,72174.8,-12.35,-41.35,-41.11,0,*67
1513206053.51,28249,5.81,72176.5,-12.35,-40.97,-40.79,0,*60
1513206054.78,28250,5.81,72174.5,-12.35,-40.41,-40.15,0,*69
1513206056.04,28251,5.81,72172.5,-12.35,-40.79,-40.53,0,*61
1513206057.31,28252,5.75,72168.8,-12.35,-41.17,-40.97,0,*63
1513206058.53,28253,5.81,72170.3,-12.33,-41.11,-40.91,0,*64
1513206059.77,28254,5.81,72164.5,-12.33,-41.17,-40.79,0,*63
1513206061.01,28255,5.81,72166.5,-12.35,-41.17,-40.91,0,*62
1513206062.25,28256,5.81,72166.3,-12.33,-41.17,-40.97,0,*61
1513206063.47,28257,5.81,72162.8,-12.33,-41.11,-40.73,0,*6C
1513206064.71,28258,5.81,72164.5,-12.33,-41.23,-41.11,0,*67
1513206065.95,28259,5.81,72162.3,-12.33,-41.35,-41.11,0,*61
1513206067.2,28260,5.81,72160.0,-12.33,-41.23,-40.91,0,*65
1513206068.47,28261,5.81,72162.0,-12.35,-41.35,-41.17,0,*6A
1513206069.74,28262,5.75,72158.0,-12.35,-40.97,-40.73,0,*63
1513206070.95,28263,5.75,72156.8,-12.33,-41.17,-40.91,0,*61
1513206072.2,28264,5.75,72156.5,-12.33,-41.35,-41.17,0,*69
1513206073.47,28265,5.75,72158.8,-12.33,-41.55,-41.35,0,*6E
1513206074.71,28266,5.81,72158.8,-12.33,-41.35,-41.11,0,*6D
1513206076.01,28267,5.75,72160.3,-12.35,-41.35,-41.35,0,*6C
1513206077.31,28268,5.75,72158.3,-12.35,-41.23,-40.97,0,*6D
1513206078.55,28269,5.75,72160.5,-12.39,-41.17,-40.85,0,*64
1513206079.81,28270,5.75,72160.3,-12.35,-41.11,-40.79,0,*65
1513206081.05,28271,5.81,72160.0,-12.35,-41.17,-41.17,0,*6B
1513206082.26,28272,5.81,72160.8,-12.39,-41.29,-41.17,0,*69
1513206083.54,28273,5.81,72162.0,-12.35,-41.35,-41.11,0,*6F
1513206084.79,28274,5.81,72160.8,-12.39,-41.03,-40.97,0,*6E
1513206086.06,28275,5.75,72160.8,-12.35,-41.35,-41.17,0,*6F
1513206087.31,28276,5.75,72160.5,-12.39,-41.23,-41.03,0,*62
1513206088.52,28277,5.81,72162.8,-12.39,-41.17,-41.17,0,*61
1513206089.77,28278,5.75,72160.8,-12.39,-41.23,-41.03,0,*6C
1513206091.01,28279,5.81,72160.3,-12.39,-41.03,-40.79,0,*63
1513206092.28,28280,5.81,72162.5,-12.39,-40.79,-40.59,0,*6B
1513206093.54,28281,5.75,72162.3,-12.39,-40.97,-40.79,0,*68
1513206094.81,28282,5.75,72160.8,-12.39,-40.85,-40.85,0,*6B
1513206096.08,28283,5.75,72160.8,-12.35,-41.17,-40.97,0,*6F
1513206097.33,28284,5.81,72162.5,-12.39,-41.23,-41.03,0,*6F
1513206098.63,28285,5.75,72160.5,-12.35,-41.23,-40.97,0,*6E
1513206099.87,28286,5.81,72166.8,-12.39,-41.11,-40.79,0,*60
1513206101.11,28287,5.75,72160.3,-12.35,-40.91,-40.73,0,*6E
1513206102.33,28288,5.81,72168.3,-12.39,-41.03,-41.03,0,*61
1513206103.6,28289,5.81,72160.5,-12.39,-40.97,-40.85,0,*63
1513206104.85,28290,5.75,72158.3,-12.39,-41.03,-40.85,0,*67
1513206106.14,28291,5.81,72158.0,-12.35,-40.79,-40.59,0,*67
1513206107.43,28292,5.75,72162.8,-12.35,-40.59,-40.59,0,*66
1513206108.7,28293,5.81,72160.8,-12.39,-40.97,-40.79,0,*6B
1513206109.9,28294,5.81,72166.0,-12.39,-40.65,-40.47,0,*6C
1513206111.14,28295,5.81,72156.8,-12.35,-40.35,-40.15,0,*63
1513206112.37,28296,5.81,72170.5,-12.35,-40.53,-40.35,0,*62
1513206113.64,28297,5.81,72170.8,-12.35,-40.41,-40.35,0,*60
1513206114.92,28298,5.81,72170.8,-12.35,-40.79,-40.79,0,*6C
1513206116.2,28299,5.81,72174.0,-12.35,-40.97,-40.79,0,*6D
1513206117.47,28300,5.81,72172.5,-12.35,-41.11,-40.97,0,*63
1513206118.77,28301,5.81,72166.0,-12.35,-40.59,-40.59,0,*6D
1513206120.0,28302,5.75,72164.3,-12.35,-40.73,-40.73,0,*6E
1513206121.24,28303,5.75,72162.8,-12.35,-40.73,-40.73,0,*6F
1513206122.5,28304,5.75,72162.3,-12.35,-40.79,-40.73,0,*62
1513206123.76,28305,5.75,72166.0,-12.35,-40.35,-40.21,0,*6C
1513206125.02,28306,5.75,72168.5,-12.35,-40.21,-40.15,0,*6D
1513206126.31,28307,5.81,72168.3,-12.35,-40.59,-40.41,0,*62
1513206127.57,28308,5.75,72170.3,-12.35,-40.53,-40.59,0,*6E
1513206128.81,28309,5.75,72174.3,-12.35,-40.73,-40.73,0,*65
1513206130.06,28310,5.81,72182.0,-12.35,-40.15,-40.35,0,*6F
1513206131.33,28311,5.81,72178.8,-12.35,-40.41,-40.53,0,*6F
1513206132.57,28312,5.75,72176.3,-12.33,-40.35,-40.41,0,*6A
1513206133.84,28313,5.75,72174.8,-12.33,-39.71,-39.59,0,*62
1513206135.11,28314,5.75,72170.0,-12.31,-39.85,-39.97,0,*6E
1513206136.34,28315,5.81,72164.8,-12.33,-40.53,-40.59,0,*64
1513206137.55,28316,5.81,72160.0,-12.33,-40.73,-40.73,0,*6D
1513206138.82,28317,5.75,72158.8,-12.31,-40.73,-40.79,0,*64
1513206140.05,28318,5.81,72160.0,-12.33,-40.79,-40.91,0,*65
1513206141.32,28319,5.81,72160.3,-12.31,-40.97,-41.17,0,*69
1513206142.54,28320,5.81,72160.8,-12.33,-41.11,-41.11,0,*68
1513206143.75,28321,5.81,72164.5,-12.33,-41.11,-41.11,0,*69
1513206144.97,28322,5.75,72162.0,-12.33,-41.11,-41.11,0,*6A
1513206146.24,28323,5.75,72162.8,-12.33,-40.97,-40.97,0,*6B
1513206147.5,28324,5.75,72162.3,-12.35,-41.17,-41.23,0,*6D
1513206148.72,28325,5.81,72160.8,-12.33,-41.17,-41.11,0,*6B
1513206149.99,28326,5.81,72166.5,-12.39,-40.85,-40.97,0,*67
1513206151.26,28327,5.81,72166.5,-12.35,-41.11,-40.97,0,*66
1513206152.5,28328,5.81,72166.0,-12.35,-41.17,-41.17,0,*66
1513206153.74,28329,5.75,72164.8,-12.39,-41.23,-41.17,0,*6C
1513206154.98,28330,5.75,72164.5,-12.35,-41.11,-41.17,0,*69
1513206156.25,28331,5.81,72168.0,-12.35,-40.97,-41.17,0,*67
1513206157.52,28332,5.75,72170.0,-12.39,-41.23,-41.23,0,*61
1513206158.79,28333,5.75,72168.3,-12.39,-41.23,-41.23,0,*60
1513206160.03,28334,5.81,72170.8,-12.39,-41.17,-41.23,0,*60
1513206161.25,28335,5.81,72174.5,-12.39,-41.17,-41.29,0,*6B
1513206162.46,28336,5.75,72172.5,-12.39,-41.17,-41.29,0,*68
1513206163.68,28337,5.75,72170.3,-12.39,-41.03,-41.17,0,*61
1513206164.95,28338,5.75,72174.5,-12.39,-41.23,-41.23,0,*6B
1513206166.22,28339,5.75,72170.0,-12.39,-41.23,-41.23,0,*6A
1513206167.44,28340,5.81,72172.5,-12.39,-41.41,-41.41,0,*64
1513206168.7,28341,5.75,72170.0,-12.41,-41.29,-41.35,0,*67
1513206169.94,28342,5.75,72168.8,-12.41,-41.11,-41.03,0,*6A
1513206171.15,28343,5.81,72174.3,-12.43,-41.49,-41.29,0,*6C
1513206172.39,28344,5.75,72172.3,-12.43,-41.29,-41.23,0,*67
1513206173.68,28345,5.81,72168.5,-12.41,-41.23,-41.23,0,*6E
1513206174.9,28346,5.75,72170.8,-12.43,-41.11,-41.11,0,*6F
1513206176.17,28347,5.75,72172.3,-12.43,-41.35,-41.35,0,*6E
1513206177.41,28348,5.75,72170.3,-12.43,-41.35,-41.49,0,*6A
1513206178.65,28349,5.81,72176.3,-12.43,-41.35,-41.49,0,*6B
1513206179.89,28350,5.81,72178.3,-12.43,-41.29,-41.35,0,*65
1513206181.13,28351,5.75,72174.5,-12.43,-41.35,-41.49,0,*62
1513206182.4,28352,5.75,72174.8,-12.43,-41.23,-41.23,0,*6A
1513206183.67,28353,5.81,72176.3,-12.45,-41.23,-41.29,0,*67
1513206184.92,28354,5.81,72178.3,-12.45,-40.91,-41.03,0,*60
1513206186.16,28355,5.75,72174.8,-12.45,-41.29,-41.29,0,*6B
1513206187.46,28356,5.75,72174.3,-12.45,-41.23,-41.23,0,*68
1513206188.71,28357,5.75,72174.8,-12.45,-40.91,-41.11,0,*60
1513206189.98,28358,5.75,72174.0,-12.45,-40.85,-40.91,0,*63
1513206191.22,28359,5.75,72176.3,-12.45,-41.17,-41.29,0,*6A
1513206192.47,28360,5.75,72174.8,-12.45,-41.11,-41.03,0,*6E
1513206193.76,28361,5.75,72170.0,-12.45,-40.85,-40.79,0,*6F
1513206195.02,28362,5.75,72174.8,-12.45,-40.73,-40.79,0,*65
1513206196.25,28363,5.75,72172.0,-12.45,-40.53,-40.73,0,*6C
1513206197.5,28364,5.81,72178.0,-12.45,-41.11,-41.03,0,*6A
1513206198.76,28365,5.81,72178.5,-12.45,-40.79,-40.91,0,*6E
1513206200.02,28366,5.75,72178.5,-12.45,-40.91,-40.91,0,*6B
1513206201.28,28367,5.75,72176.3,-12.45,-40.73,-40.79,0,*60
1513206202.53,28368,5.81,72180.8,-12.45,-40.91,-41.11,0,*6C
1513206203.82,28369,5.81,72180.0,-12.45,-40.97,-40.97,0,*64
1513206205.06,28370,5.81,72182.8,-12.45,-41.29,-41.17,0,*61
1513206206.36,28371,5.75,72180.8,-12.45,-41.23,-41.23,0,*6D
1513206207.63,28372,5.75,72180.3,-12.45,-40.85,-41.03,0,*61
1513206208.9,28373,5.75,72180.8,-12.45,-40.97,-41.11,0,*60
1513206210.17,28374,5.75,72182.3,-12.45,-41.29,-41.35,0,*65
1513206211.44,28375,5.75,72178.3,-12.45,-41.11,-40.97,0,*66
1513206212.68,28376,5.75,72174.3,-12.45,-41.11,-41.17,0,*6C
1513206213.95,28377,5.81,72176.5,-12.45,-41.23,-41.29,0,*61
1513206215.19,28378,5.75,72174.0,-12.45,-41.29,-41.49,0,*62
1513206216.48,28379,5.75,72176.0,-12.45,-41.55,-41.55,0,*65
1513206217.78,28380,5.75,72180.5,-12.49,-41.35,-41.35,0,*6F
1513206219.05,28381,5.81,72182.8,-12.45,-41.35,-41.41,0,*61
1513206220.29,28382,5.81,72186.0,-12.49,-41.49,-41.49,0,*6D
1513206221.57,28383,5.75,72184.8,-12.49,-41.03,-40.97,0,*60
1513206222.86,28384,5.75,72180.5,-12.49,-40.21,-40.09,0,*61
1513206224.12,28385,5.75,72182.5,-12.45,-40.73,-40.79,0,*6C
1513206225.39,28386,5.75,72176.5,-12.49,-41.03,-41.23,0,*6B
1513206226.63,28387,5.81,72182.0,-12.45,-41.17,-41.29,0,*69
1513206227.9,28388,5.75,72178.0,-12.45,-41.35,-41.29,0,*66
1513206229.18,28389,5.75,72176.0,-12.45,-40.79,-40.79,0,*6A
1513206230.48,28390,5.75,72176.0,-12.49,-40.97,-40.97,0,*6E
1513206231.75,28391,5.75,72176.8,-12.51,-40.79,-40.85,0,*65
1513206233.02,28392,5.75,72180.5,-12.49,-41.23,-41.17,0,*6B
1513206234.25,28393,5.75,72182.5,-12.51,-41.03,-41.03,0,*64
1513206235.5,28394,5.75,72180.5,-12.49,-41.03,-41.03,0,*6A
1513206236.8,28395,5.81,72184.0,-12.49,-40.97,-40.97,0,*6B
1513206238.1,28396,5.75,72180.0,-12.49,-40.85,-40.97,0,*6B
1513206239.39,28397,5.75,72182.3,-12.49,-40.85,-40.85,0,*69
1513206240.66,28398,5.75,72180.5,-12.49,-40.59,-40.65,0,*69
1513206241.95,28399,5.81,72182.8,-12.49,-40.97,-40.85,0,*64
1513206243.23,28400,5.75,72176.0,-12.45,-40.97,-40.91,0,*6A
1513206244.5,28401,5.75,72176.5,-12.45,-40.91,-40.97,0,*6B
1513206245.75,28402,5.75,72172.0,-12.45,-41.11,-41.11,0,*6E
1513206246.99,28403,5.75,72172.5,-12.45,-41.29,-41.29,0,*6F
1513206248.28,28404,5.81,72176.0,-12.45,-41.55,-41.55,0,*68
1513206249.55,28405,5.75,72170.0,-12.45,-41.49,-41.35,0,*62
1513206250.82,28406,5.75,72174.0,-12.45,-41.55,-41.41,0,*6F
1513206252.09,28407,5.81,72174.5,-12.45,-41.41,-41.35,0,*68
1513206253.33,28408,5.81,72174.5,-12.45,-41.41,-41.29,0,*6A
1513206254.63,28409,5.75,72170.8,-12.49,-41.67,-41.67,0,*69
1513206255.87,28410,5.75,72174.3,-12.49,-41.61,-41.49,0,*6B
1513206257.09,28411,5.81,72174.0,-12.51,-41.49,-41.61,0,*63
1513206258.34,28412,5.75,72172.0,-12.51,-41.41,-41.35,0,*69
1513206259.61,28413,5.75,72174.8,-12.51,-41.35,-41.23,0,*6C
1513206260.89,28414,5.75,72174.3,-12.51,-41.35,-41.23,0,*6B
1513206262.14,28415,5.75,72172.5,-12.51,-41.03,-40.97,0,*61
1513206263.4,28416,5.75,72174.0,-12.51,-40.79,-40.79,0,*6E
1513206264.68,28417,5.75,72170.8,-12.51,-40.97,-40.97,0,*6F
1513206265.97,28418,5.75,72172.5,-12.49,-40.97,-40.97,0,*69
1513206267.25,28419,5.75,72172.3,-12.49,-41.03,-40.97,0,*64
1513206268.52,28420,5.75,72174.0,-12.49,-40.65,-40.59,0,*6D
1513206269.79,28421,5.75,72170.0,-12.49,-41.35,-41.17,0,*63
1513206271.04,28422,5.75,72174.8,-12.51,-41.17,-40.97,0,*60
1513206272.31,28423,5.75,72174.8,-12.49,-40.85,-41.03,0,*6E
1513206273.56,28424,5.75,72172.5,-12.51,-41.03,-40.97,0,*63
1513206274.84,28425,5.75,72174.0,-12.49,-41.17,-40.97,0,*6E
1513206276.13,28426,5.81,72170.5,-12.49,-40.41,-40.29,0,*6A
1513206277.39,28427,5.75,72166.8,-12.49,-40.65,-40.59,0,*6A
1513206278.69,28428,5.75,72168.5,-12.49,-40.97,-40.97,0,*6A
1513206279.97,28429,5.75,72166.0,-12.49,-39.79,-39.65,0,*66
1513206281.25,28430,5.75,72166.3,-12.45,-40.15,-40.09,0,*62
1513206282.54,28431,5.75,72164.3,-12.45,-40.59,-40.59,0,*6E
1513206283.81,28432,5.75,72164.0,-12.45,-40.59,-40.53,0,*67
1513206285.04,28433,5.75,72166.0,-12.45,-40.35,-40.47,0,*69
1513206286.28,28434,5.75,72164.0,-12.45,-40.35,-40.35,0,*6B
1513206287.56,28435,5.75,72162.5,-12.45,-39.71,-39.65,0,*6F
1513206288.79,28436,5.75,72166.0,-12.43,-39.15,-39.35,0,*6D
1513206290.0,28437,5.75,72166.3,-12.43,-40.65,-40.47,0,*6E
1513206291.22,28438,5.75,72160.5,-12.43,-41.03,-41.03,0,*61
1513206292.47,28439,5.81,72164.5,-12.43,-41.23,-41.11,0,*61
1513206293.72,28440,5.75,72162.8,-12.43,-41.23,-41.03,0,*6C
1513206294.96,28441,5.81,72170.5,-12.43,-41.29,-41.23,0,*65
1513206296.17,28442,5.75,72166.5,-12.43,-41.29,-41.11,0,*67
1513206297.41,28443,5.75,72164.3,-12.43,-41.29,-41.23,0,*67
1513206298.65,28444,5.75,72160.0,-12.45,-41.11,-41.03,0,*6F
1513206299.9,28445,5.75,72162.8,-12.45,-41.11,-41.11,0,*6D
1513206301.12,28446,5.75,72158.3,-12.43,-41.03,-40.91,0,*62
1513206302.37,28447,5.75,72164.3,-12.43,-41.35,-41.03,0,*6C
1513206303.59,28448,5.75,72164.8,-12.43,-41.11,-41.03,0,*65
1513206304.83,28449,5.75,72166.8,-12.43,-41.29,-41.23,0,*6D
1513206306.07,28450,5.75,72164.5,-12.43,-41.29,-41.23,0,*65
1513206307.28,28451,5.75,72164.8,-12.43,-41.49,-41.29,0,*68
1513206308.55,28452,5.81,72166.0,-12.45,-41.49,-41.35,0,*60
1513206309.79,28453,5.81,72164.0,-12.45,-41.49,-41.49,0,*6A
1513206311.08,28454,5.75,72160.5,-12.45,-41.55,-41.55,0,*6D
1513206312.38,28455,5.75,72160.8,-12.45,-41.55,-41.55,0,*6C
1513206313.65,28456,5.81,72166.3,-12.45,-41.55,-41.41,0,*6A
1513206314.92,28457,5.75,72160.0,-12.45,-41.49,-41.35,0,*65
1513206316.21,28458,5.75,72162.5,-12.45,-41.55,-41.35,0,*67
1513206317.45,28459,5.75,72158.0,-12.45,-41.17,-41.11,0,*66
1513206318.7,28460,5.75,72162.3,-12.45,-41.17,-41.17,0,*6A
1513206319.96,28461,5.75,72158.3,-12.45,-41.55,-41.29,0,*60
1513206321.26,28462,5.75,72164.5,-12.45,-41.55,-41.55,0,*68
1513206322.5,28463,5.75,72160.3,-12.45,-41.29,-41.29,0,*69
1513206323.8,28464,5.75,72160.8,-12.45,-41.35,-41.35,0,*6E
1513206325.04,28465,5.81,72164.8,-12.45,-41.17,-41.29,0,*62
1513206326.34,28466,5.75,72156.0,-12.45,-41.35,-41.35,0,*6C
1513206327.63,28467,5.75,72158.5,-12.45,-41.35,-41.35,0,*6D
1513206328.88,28468,5.75,72158.5,-12.45,-41.17,-41.11,0,*64
1513206330.16,28469,5.75,72160.8,-12.45,-40.91,-40.97,0,*65
1513206331.43,28470,5.81,72162.3,-12.45,-41.11,-40.97,0,*64
1513206332.7,28471,5.75,72156.3,-12.45,-40.91,-40.85,0,*6F
1513206333.97,28472,5.75,72158.3,-12.45,-40.73,-40.59,0,*61
1513206335.24,28473,5.75,72152.8,-12.45,-41.29,-40.97,0,*6C
1513206336.48,28474,5.75,72156.0,-12.45,-41.29,-41.17,0,*62
1513206337.75,28475,5.75,72154.0,-12.45,-40.97,-40.91,0,*68
1513206339.02,28476,5.75,72156.5,-12.45,-41.17,-40.97,0,*64
1513206340.29,28477,5.75,72158.3,-12.45,-40.91,-40.79,0,*6A
1513206341.58,28478,5.75,72146.8,-12.45,-40.97,-40.79,0,*63
1513206342.85,28479,5.75,72150.0,-12.45,-40.97,-41.11,0,*6D
1513206344.09,28480,5.75,72150.5,-12.45,-41.29,-41.29,0,*64
1513206345.36,28481,5.75,72148.0,-12.45,-41.23,-41.11,0,*64
1513206346.6,28482,5.75,72148.8,-12.45,-41.17,-41.17,0,*66
1513206347.88,28483,5.75,72150.5,-12.45,-41.35,-41.11,0,*61
1513206349.17,28484,5.75,72148.5,-12.45,-40.97,-40.97,0,*60
1513206350.42,28485,5.75,72150.5,-12.45,-41.11,-41.11,0,*61
1513206351.66,28486,5.81,72154.5,-12.45,-41.29,-41.17,0,*6F
1513206352.92,28487,5.75,72154.3,-12.45,-41.29,-41.35,0,*6E
1513206354.19,28488,5.75,72152.8,-12.45,-41.35,-41.17,0,*6C
1513206355.47,28489,5.81,72158.3,-12.45,-41.11,-40.97,0,*62
1513206356.74,28490,5.75,72152.3,-12.45,-41.11,-40.97,0,*6A
1513206357.98,28491,5.75,72156.3,-12.45,-41.17,-41.11,0,*62
1513206359.22,28492,5.75,72156.5,-12.45,-41.17,-41.11,0,*61
1513206360.5,28493,5.75,72154.3,-12.45,-41.11,-40.97,0,*69
1513206361.75,28494,5.75,72158.0,-12.45,-40.91,-40.91,0,*61
1513206363.03,28495,5.75,72162.5,-12.49,-41.03,-40.97,0,*60
1513206364.3,28496,5.75,72164.3,-12.49,-41.23,-41.17,0,*68
1513206365.54,28497,5.75,72158.3,-12.45,-41.11,-40.91,0,*6B
1513206366.81,28498,5.75,72152.5,-12.45,-40.59,-40.53,0,*67
1513206368.1,28499,5.75,72156.5,-12.45,-40.59,-40.59,0,*6C
1513206369.38,28500,5.75,72158.0,-12.45,-40.41,-40.53,0,*6E
1513206370.61,28501,5.75,72158.5,-12.45,-40.47,-40.47,0,*6C
1513206371.85,28502,5.75,72158.0,-12.45,-40.47,-40.47,0,*6F
1513206373.15,28503,5.75,72154.8,-12.45,-40.59,-40.41,0,*67
1513206374.38,28504,5.75,72162.3,-12.45,-40.73,-40.73,0,*69
1513206375.64,28505,5.75,72156.3,-12.45,-41.03,-40.91,0,*62
1513206376.89,28506,5.75,72154.5,-12.45,-41.03,-40.91,0,*61
1513206378.14,28507,5.75,72154.0,-12.45,-41.11,-40.91,0,*63
1513206379.37,28508,5.75,72156.5,-12.45,-40.73,-40.73,0,*65
1513206380.61,28509,5.75,72154.3,-12.45,-40.65,-40.73,0,*63
1513206381.86,28510,5.81,72154.8,-12.45,-41.03,-40.91,0,*66
1513206383.1,28511,5.75,72152.8,-12.45,-41.17,-41.11,0,*6B
1513206384.35,28512,5.75,72154.5,-12.45,-41.11,-40.91,0,*67
1513206385.6,28513,5.75,72156.5,-12.45,-41.11,-41.03,0,*6C
1513206386.85,28514,5.75,72152.5,-12.45,-41.03,-41.03,0,*68
1513206388.14,28515,5.75,72148.3,-12.45,-40.85,-40.85,0,*69
1513206389.4,28516,5.75,72144.8,-12.45,-40.91,-40.91,0,*6A
1513206390.65,28517,5.75,72150.8,-12.45,-41.03,-40.91,0,*61
1513206391.89,28518,5.81,72154.8,-12.45,-40.53,-40.53,0,*64
1513206393.15,28519,5.75,72152.3,-12.45,-40.35,-40.29,0,*68
1513206394.41,28520,5.75,72154.0,-12.45,-40.53,-40.59,0,*65
1513206395.65,28521,5.75,72152.3,-12.45,-40.53,-40.47,0,*6B
1513206396.88,28522,5.75,72152.0,-12.45,-40.65,-40.47,0,*6D
1513206398.12,28523,5.75,72152.0,-12.45,-40.35,-40.35,0,*6C
1513206399.35,28524,5.81,72156.8,-12.45,-40.65,-40.65,0,*6B
1513206400.55,28525,5.75,72156.3,-12.43,-40.53,-40.47,0,*69
1513206401.76,28526,5.75,72158.0,-12.43,-40.53,-40.53,0,*6F
1513206402.97,28527,5.75,72158.5,-12.43,-40.65,-40.65,0,*6E
1513206404.21,28528,5.75,72160.0,-12.43,-40.35,-40.29,0,*6C
1513206405.42,28529,5.81,72156.3,-12.43,-40.35,-40.35,0,*60
1513206406.67,28530,5.75,72150.0,-12.41,-40.29,-40.15,0,*65
1513206407.91,28531,5.75,72150.3,-12.43,-40.35,-40.29,0,*64
1513206409.14,28532,5.75,72148.0,-12.41,-40.47,-40.35,0,*6D
1513206410.39,28533,5.75,72148.8,-12.43,-40.15,-39.97,0,*6F
1513206411.64,28534,5.75,72150.8,-12.41,-39.29,-39.35,0,*63
1513206412.9,28535,5.81,72150.8,-12.41,-39.35,-39.15,0,*6D
1513206414.16,28536,5.75,72152.3,-12.39,-39.41,-39.41,0,*63
1513206415.43,28537,5.75,72154.0,-12.35,-38.79,-38.61,0,*67
1513206416.72,28538,5.75,72160.0,-12.35,-39.71,-39.53,0,*61
1513206418.01,28539,5.75,72156.5,-12.35,-39.59,-39.41,0,*69
1513206419.28,28540,5.81,72162.8,-12.33,-39.71,-39.71,0,*68
1513206420.53,28541,5.75,72158.8,-12.33,-39.85,-39.79,0,*6A
1513206421.78,28542,5.75,72156.5,-12.31,-40.15,-40.15,0,*68
1513206423.03,28543,5.75,72160.3,-12.31,-40.15,-40.03,0,*6E
1513206424.3,28544,5.75,72160.0,-12.31,-40.41,-40.53,0,*6D
1513206425.6,28545,5.75,72158.0,-12.31,-40.59,-40.59,0,*6F
1513206426.87,28546,5.75,72158.0,-12.31,-39.85,-39.59,0,*6D
1513206428.14,28547,5.75,72156.5,-12.31,-40.03,-39.97,0,*6E
1513206429.44,28548,5.75,72156.0,-12.31,-40.41,-40.41,0,*62
1513206430.67,28549,5.75,72154.8,-12.29,-40.35,-40.29,0,*67
1513206431.89,28550,5.75,72152.0,-12.29,-40.65,-40.53,0,*67
1513206433.1,28551,5.75,72154.0,-12.29,-40.65,-40.53,0,*66
1513206434.39,28552,5.75,72156.8,-12.31,-40.79,-40.59,0,*6B
1513206435.68,28553,5.75,72154.0,-12.31,-40.59,-40.59,0,*68
1513206436.95,28554,5.75,72154.3,-12.31,-40.41,-40.35,0,*6C
1513206438.22,28555,5.75,72154.5,-12.31,-40.73,-40.59,0,*66
1513206439.5,28556,5.75,72156.5,-12.33,-41.23,-40.97,0,*61
1513206440.8,28557,5.81,72158.8,-12.31,-41.35,-41.35,0,*6C
1513206442.04,28558,5.75,72156.5,-12.33,-41.41,-41.35,0,*62
1513206443.28,28559,5.75,72154.8,-12.33,-41.41,-41.55,0,*65
1513206444.55,28560,5.75,72156.3,-12.33,-41.55,-41.35,0,*6C
1513206445.76,28561,5.75,72158.0,-12.33,-41.41,-41.41,0,*6B
1513206447.03,28562,5.75,72158.5,-12.35,-41.41,-41.23,0,*6A
1513206448.3,28563,5.75,72156.0,-12.35,-41.41,-41.23,0,*6B
1513206449.57,28564,5.75,72158.8,-12.35,-41.41,-41.23,0,*6C
1513206450.79,28565,5.75,72154.3,-12.39,-41.61,-41.49,0,*6F
1513206452.0,28566,5.75,72158.3,-12.39,-41.41,-41.29,0,*68
1513206453.22,28567,5.75,72152.8,-12.39,-41.41,-41.29,0,*69
1513206454.43,28568,5.75,72152.8,-12.39,-41.29,-41.17,0,*65
1513206455.68,28569,5.75,72154.8,-12.39,-41.17,-40.97,0,*60
1513206456.95,28570,5.75,72156.8,-12.39,-40.85,-40.85,0,*61
1513206458.19,28571,5.75,72152.8,-12.35,-41.11,-41.11,0,*6C
1513206459.44,28572,5.75,72152.3,-12.39,-41.23,-41.03,0,*61
1513206460.7,28573,5.75,72158.3,-12.41,-41.35,-41.29,0,*60
1513206461.94,28574,5.75,72154.0,-12.43,-41.49,-41.23,0,*64
1513206463.19,28575,5.75,72154.8,-12.43,-41.23,-41.03,0,*6B
1513206464.45,28576,5.75,72150.0,-12.41,-40.85,-40.73,0,*61
1513206465.68,28577,5.75,72154.8,-12.41,-40.65,-40.65,0,*69
1513206466.93,28578,5.75,72150.0,-12.43,-41.23,-40.91,0,*6C
1513206468.2,28579,5.75,72148.3,-12.41,-41.23,-40.91,0,*6F
1513206469.46,28580,5.75,72148.5,-12.41,-40.85,-40.73,0,*68
1513206470.69,28581,5.75,72144.8,-12.41,-40.73,-40.53,0,*62
1513206471.93,28582,5.75,72146.8,-12.41,-40.91,-40.73,0,*6F
1513206473.2,28583,5.75,72144.3,-12.41,-41.03,-40.85,0,*6D
1513206474.42,28584,5.75,72140.3,-12.43,-40.91,-40.73,0,*6B
1513206475.65,28585,5.75,72140.0,-12.41,-40.73,-40.53,0,*66
1513206476.88,28586,5.75,72136.3,-12.41,-40.65,-40.65,0,*67
1513206478.14,28587,5.75,72130.3,-12.41,-40.85,-40.65,0,*68
1513206479.38,28588,5.75,72128.3,-12.41,-40.91,-40.53,0,*67
1513206480.64,28589,5.75,72128.5,-12.41,-40.85,-40.65,0,*66
1513206481.89,28590,5.75,72130.8,-12.41,-40.85,-40.65,0,*6E
1513206483.12,28591,5.75,72136.0,-12.41,-40.65,-40.35,0,*64
1513206484.39,28592,5.75,72134.8,-12.35,-40.91,-40.59,0,*65
1513206485.63,28593,5.75,72130.8,-12.39,-40.97,-40.65,0,*61
1513206486.87,28594,5.75,72132.3,-12.39,-40.85,-40.65,0,*65
1513206488.14,28595,5.75,72124.8,-12.39,-40.97,-40.59,0,*68
1513206489.38,28596,5.75,72126.5,-12.39,-40.47,-40.09,0,*63
1513206490.61,28597,5.75,72130.5,-12.39,-40.65,-40.29,0,*60
1513206491.85,28598,5.75,72134.5,-12.39,-40.47,-40.09,0,*6D
1513206493.08,28599,5.75,72132.3,-12.39,-40.65,-40.29,0,*6E
1513206494.34,28600,5.75,72138.0,-12.35,-40.59,-40.35,0,*63
1513206495.6,28601,5.75,72128.8,-12.39,-40.79,-40.29,0,*61
1513206496.84,28602,5.75,72138.8,-12.39,-40.47,-40.09,0,*6D
1513206498.11,28603,5.81,72136.0,-12.35,-40.41,-40.03,0,*6C
1513206499.38,28604,5.75,72134.5,-12.39,-40.41,-40.09,0,*6D
1513206500.64,28605,5.75,72134.5,-12.35,-40.41,-40.03,0,*6A
1513206501.87,28606,5.75,72132.3,-12.39,-40.65,-40.29,0,*6B